N7CEE Weather Reports


time (UTC)temp
C
wind
direction
speed
KPH
gust
KPH
rain 1hr
cm
rain 24hr
cm
rain mn
cm
humidity
%
barometer
mb
20260507051624 7 263 0.0 0.0 0.00 0.03 0.03 46 1026.8
20260507051121 7 264 0.0 1.6 0.00 0.03 0.03 44 1026.5
20260507050618 7 317 0.0 0.0 0.00 0.03 0.03 46 1026.6
20260507050114 7 277 1.6 3.2 0.00 0.03 0.03 42 1026.5
20260507045611 7 90 0.0 0.0 0.00 0.03 0.03 39 1026.3
20260507045108 7 90 0.0 1.6 0.00 0.03 0.03 43 1026.2
20260507044605 7 90 0.0 3.2 0.00 0.03 0.03 43 1026.2
20260507044102 7 90 1.6 1.6 0.00 0.03 0.03 43 1026.3
20260507043557 7 89 1.6 1.6 0.00 0.03 0.03 44 1026.3
20260507043055 7 88 1.6 3.2 0.00 0.03 0.03 44 1026.3
20260507042551 7 85 1.6 3.2 0.00 0.03 0.03 45 1026.3
20260507042046 7 94 1.6 3.2 0.00 0.03 0.03 45 1026.1
20260507041544 8 93 1.6 3.2 0.00 0.03 0.03 45 1026.2
20260507041041 8 91 1.6 4.8 0.00 0.03 0.03 44 1026.1
20260507040537 8 90 3.2 3.2 0.00 0.03 0.03 43 1026.0
20260507040033 8 87 1.6 3.2 0.00 0.03 0.03 42 1026.0
20260507035529 9 105 3.2 3.2 0.00 0.03 0.03 41 1026.0
20260507035026 9 99 0.0 3.2 0.00 0.03 0.03 41 1026.0
20260507034523 9 99 0.0 1.6 0.00 0.03 0.03 41 1025.8
20260507034021 10 91 0.0 3.2 0.00 0.03 0.03 41 1025.8
20260507033518 10 94 1.6 3.2 0.00 0.03 0.03 41 1025.6
20260507033015 10 96 1.6 3.2 0.00 0.03 0.03 39 1025.8
20260507032512 10 110 1.6 1.6 0.00 0.03 0.03 37 1025.8
20260507032008 10 136 1.6 1.6 0.00 0.03 0.03 36 1025.5
20260507031504 11 151 1.6 1.6 0.00 0.03 0.03 36 1025.6
20260507031002 11 171 0.0 1.6 0.00 0.03 0.03 35 1025.3
20260507030459 11 171 0.0 1.6 0.00 0.03 0.03 35 1025.2
20260507025956 12 171 1.6 1.6 0.00 0.03 0.03 35 1025.1
20260507025453 12 171 0.0 0.0 0.00 0.03 0.03 32 1025.1
20260507024951 12 171 0.0 0.0 0.00 0.03 0.03 32 1025.1
20260507024448 13 171 0.0 1.6 0.00 0.03 0.03 32 1025.0
20260507023944 13 171 0.0 1.6 0.00 0.03 0.03 31 1024.9
20260507023441 13 172 1.6 1.6 0.00 0.03 0.03 30 1024.9
20260507022938 13 163 1.6 1.6 0.00 0.03 0.03 29 1024.9
20260507022435 13 161 0.0 1.6 0.00 0.03 0.03 32 1024.7
20260507021930 13 161 1.6 1.6 0.00 0.03 0.03 35 1024.5
20260507021426 13 155 0.0 0.0 0.00 0.03 0.03 34 1024.2
20260507020924 13 155 0.0 0.0 0.00 0.03 0.03 34 1024.2
20260507020420 14 155 0.0 0.0 0.00 0.03 0.03 33 1024.4
20260507015918 15 155 0.0 0.0 0.00 0.03 0.03 33 1024.2
20260507015416 15 155 0.0 0.0 0.00 0.03 0.03 32 1024.4
20260507014912 15 155 0.0 1.6 0.00 0.03 0.03 32 1024.5
20260507014409 15 155 0.0 0.0 0.00 0.03 0.03 31 1024.2
20260507013905 15 156 0.0 0.0 0.00 0.03 0.03 30 1024.1
20260507013402 15 155 0.0 0.0 0.00 0.03 0.03 30 1024.2
20260507012900 16 155 0.0 1.6 0.00 0.03 0.03 30 1024.1
20260507012356 16 24 3.2 3.2 0.00 0.03 0.03 28 1024.1
20260507011853 16 155 0.0 1.6 0.00 0.03 0.03 29 1024.1
20260507011349 16 178 0.0 0.0 0.00 0.03 0.03 29 1024.2
20260507010844 16 231 0.0 3.2 0.00 0.03 0.03 28 1023.9
20260507010340 16 218 0.0 1.6 0.00 0.03 0.03 28 1024.1
20260507005837 16 226 0.0 3.2 0.00 0.03 0.03 28 1023.9
20260507005333 16 221 0.0 1.6 0.00 0.03 0.03 28 1023.9
20260507004831 16 187 0.0 1.6 0.00 0.03 0.03 27 1023.9
20260507004328 16 186 0.0 1.6 0.00 0.03 0.03 28 1023.9
20260507003825 16 169 1.6 1.6 0.00 0.03 0.03 28 1023.6
20260507003321 16 268 0.0 1.6 0.00 0.03 0.03 28 1023.6
20260507002815 16 130 0.0 1.6 0.00 0.03 0.03 29 1023.7
20260507002312 16 129 0.0 3.2 0.00 0.03 0.03 29 1023.7
20260507001809 17 78 4.8 8.0 0.00 0.03 0.03 27 1023.5
20260507001306 17 164 3.2 8.0 0.00 0.03 0.03 27 1023.4
20260507000803 17 48 4.8 8.0 0.00 0.03 0.03 27 1023.5
20260507000259 17 91 3.2 4.8 0.00 0.03 0.03 27 1023.4
20260506235755 17 92 4.8 4.8 0.00 0.03 0.03 26 1023.2
20260506235251 17 128 1.6 1.6 0.00 0.03 0.03 26 1023.4
20260506234748 18 83 4.8 8.0 0.00 0.03 0.03 25 1023.4
20260506234245 18 137 0.0 8.0 0.00 0.03 0.03 25 1023.4
20260506233743 18 56 8.0 9.7 0.00 0.03 0.03 25 1023.1
20260506233239 18 150 0.0 4.8 0.00 0.03 0.03 24 1023.2
20260506232736 17 84 4.8 4.8 0.00 0.03 0.03 25 1023.1
20260506232230 18 122 4.8 4.8 0.00 0.03 0.03 24 1023.2
20260506231728 18 74 3.2 3.2 0.00 0.03 0.03 24 1023.1
20260506231226 18 326 4.8 8.0 0.00 0.03 0.03 24 1023.1
20260506230723 18 58 1.6 4.8 0.00 0.03 0.03 24 1023.0
20260506230219 19 0 3.2 14.5 0.00 0.03 0.03 25 1023.1
20260506225716 20 59 6.4 11.3 0.00 0.03 0.03 24 1023.0
20260506225213 20 343 4.8 8.0 0.00 0.03 0.03 23 1023.0
20260506224709 19 40 6.4 9.7 0.00 0.03 0.03 23 1022.9
20260506224207 18 178 1.6 12.9 0.00 0.03 0.03 24 1022.9
20260506223703 18 337 4.8 9.7 0.00 0.03 0.03 25 1023.1
20260506223158 18 54 0.0 8.0 0.00 0.03 0.03 25 1023.0
20260506222655 19 336 6.4 8.0 0.00 0.03 0.03 25 1023.0
20260506222151 18 279 1.6 9.7 0.00 0.03 0.03 25 1023.1
20260506221650 19 32 4.8 8.0 0.00 0.03 0.03 25 1023.2
20260506221147 18 73 3.2 8.0 0.00 0.03 0.03 25 1023.1
20260506220644 18 52 1.6 8.0 0.00 0.03 0.03 25 1023.1
20260506220139 18 49 4.8 14.5 0.00 0.03 0.03 26 1023.2
20260506215636 17 33 0.0 8.0 0.00 0.03 0.03 26 1023.1
20260506215131 18 206 3.2 3.2 0.00 0.03 0.03 25 1023.4
20260506214628 18 191 1.6 4.8 0.00 0.03 0.03 25 1023.6
20260506214126 17 5 4.8 8.0 0.00 0.03 0.03 28 1023.6
20260506213624 18 186 1.6 4.8 0.00 0.03 0.03 26 1023.6
20260506213121 18 51 3.2 4.8 0.00 0.03 0.03 27 1023.6
20260506212618 18 336 4.8 9.7 0.00 0.03 0.03 27 1023.6
20260506212113 18 323 6.4 9.7 0.00 0.03 0.03 27 1023.7
20260506211609 18 21 3.2 9.7 0.00 0.03 0.03 28 1023.7
20260506211106 18 71 3.2 12.9 0.00 0.03 0.03 28 1023.6
20260506210603 18 161 1.6 8.0 0.00 0.03 0.03 27 1023.6
20260506210059 18 80 3.2 4.8 0.00 0.03 0.03 27 1023.6
20260506205556 18 71 3.2 8.0 0.00 0.03 0.03 26 1023.6
20260506205051 17 349 4.8 11.3 0.00 0.03 0.03 29 1023.7
20260506204549 17 71 1.6 4.8 0.00 0.03 0.03 30 1023.9
20260506204046 17 53 1.6 4.8 0.00 0.03 0.03 30 1023.6
20260506203544 18 197 1.6 4.8 0.00 0.03 0.03 28 1023.7
20260506203041 19 199 1.6 8.0 0.00 0.03 0.03 26 1023.6
20260506202538 18 89 1.6 8.0 0.00 0.03 0.03 28 1023.7
20260506202034 18 154 8.0 12.9 0.00 0.03 0.03 27 1023.6
20260506201532 18 90 4.8 4.8 0.00 0.03 0.03 28 1023.6
20260506201028 17 344 8.0 11.3 0.00 0.03 0.03 28 1023.9
20260506200524 17 223 0.0 1.6 0.00 0.03 0.03 27 1023.6
20260506200021 16 114 4.8 9.7 0.00 0.03 0.03 29 1023.7
20260506195518 16 107 9.7 14.5 0.00 0.03 0.03 30 1023.5
20260506195015 17 300 3.2 12.9 0.00 0.03 0.03 28 1023.6
20260506194512 17 71 4.8 8.0 0.00 0.03 0.03 27 1023.6
20260506194009 17 334 8.0 12.9 0.00 0.03 0.03 30 1023.6
20260506193506 16 324 3.2 4.8 0.00 0.03 0.03 29 1023.7
20260506193003 17 107 4.8 16.1 0.00 0.03 0.03 30 1023.6
20260506192500 17 43 3.2 4.8 0.00 0.03 0.03 30 1023.7
20260506191955 17 129 4.8 4.8 0.00 0.03 0.03 29 1023.5
20260506191453 16 131 4.8 8.0 0.00 0.03 0.03 28 1023.9
20260506190949 16 219 4.8 9.7 0.00 0.03 0.03 30 1023.6
20260506190446 16 13 8.0 11.3 0.00 0.03 0.03 31 1023.6
20260506185942 16 272 6.4 12.9 0.00 0.03 0.03 31 1023.9
20260506185440 16 70 4.8 4.8 0.00 0.03 0.03 32 1023.7
20260506184937 17 187 1.6 11.3 0.00 0.03 0.03 30 1023.7
20260506184433 17 13 4.8 11.3 0.00 0.03 0.03 31 1023.7
20260506183931 16 81 4.8 8.0 0.00 0.03 0.03 31 1023.9
20260506183426 16 7 3.2 9.7 0.00 0.03 0.03 32 1024.0
20260506182923 16 335 6.4 8.0 0.00 0.03 0.03 32 1023.9
20260506182421 16 55 4.8 9.7 0.00 0.03 0.03 33 1023.9
20260506181918 15 354 1.6 9.7 0.00 0.03 0.03 35 1024.0
20260506181416 15 177 0.0 9.7 0.00 0.03 0.03 36 1023.9
20260506180912 15 57 4.8 4.8 0.00 0.03 0.03 33 1024.0
20260506180409 15 118 12.9 16.1 0.00 0.03 0.03 34 1024.0
20260506175906 15 95 8.0 11.3 0.00 0.03 0.03 35 1024.1
20260506175402 15 181 0.0 8.0 0.00 0.03 0.03 34 1024.1
20260506174859 15 350 1.6 3.2 0.00 0.03 0.03 35 1024.0
20260506174357 15 112 1.6 8.0 0.00 0.03 0.03 36 1024.0
20260506173854 15 344 3.2 8.0 0.00 0.03 0.03 37 1023.9
20260506173350 15 9 3.2 8.0 0.00 0.03 0.03 35 1023.9
20260506172848 14 130 4.8 4.8 0.00 0.03 0.03 36 1024.0
20260506172344 14 38 4.8 11.3 0.00 0.03 0.03 38 1023.7
20260506171842 14 319 4.8 8.0 0.00 0.03 0.03 36 1023.6
20260506171339 14 143 4.8 8.0 0.00 0.03 0.03 37 1023.5
20260506170836 13 44 3.2 9.7 0.00 0.03 0.03 38 1023.5
20260506170332 13 145 1.6 4.8 0.00 0.03 0.03 38 1023.6
20260506165826 13 117 4.8 9.7 0.00 0.03 0.03 38 1023.6
20260506165323 12 274 4.8 9.7 0.00 0.03 0.03 40 1023.5
20260506164819 12 85 1.6 8.0 0.00 0.03 0.03 39 1023.5
20260506164316 12 315 3.2 4.8 0.00 0.03 0.03 41 1023.6
20260506163813 12 111 3.2 9.7 0.00 0.03 0.03 40 1023.5
20260506163308 12 68 3.2 8.0 0.00 0.03 0.03 42 1023.4
20260506162804 12 327 3.2 4.8 0.00 0.03 0.03 43 1023.4
20260506162306 11 144 1.6 4.8 0.00 0.03 0.03 44 1023.5
20260506161759 11 54 4.8 4.8 0.00 0.03 0.03 45 1023.5
20260506161256 11 42 1.6 8.0 0.00 0.03 0.03 44 1023.4
20260506160754 10 53 4.8 9.7 0.00 0.03 0.03 45 1023.1
20260506160250 10 65 1.6 17.7 0.00 0.03 0.03 47 1023.4
20260506155749 10 330 6.4 9.7 0.00 0.03 0.03 48 1023.2
20260506155245 10 351 3.2 8.0 0.00 0.03 0.03 48 1023.2
20260506153358 8 343 1.6 9.7 0.00 0.00 0.00 50 1023.1
20260506152855 8 122 4.8 8.0 0.00 0.00 0.00 51 1023.2
20260506152352 8 331 4.8 8.0 0.00 0.00 0.00 51 1023.5
20260506151851 7 325 8.0 12.9 0.00 0.00 0.00 51 1023.2
20260506151347 7 119 3.2 12.9 0.00 0.00 0.00 52 1023.2
20260506150845 7 82 3.2 8.0 0.00 0.00 0.00 54 1023.4
20260506150341 7 254 3.2 4.8 0.00 0.00 0.00 56 1023.4
20260506145838 7 193 0.0 1.6 0.00 0.00 0.00 59 1023.1
20260506145334 6 339 3.2 8.0 0.00 0.00 0.00 57 1023.2
20260506144832 6 81 1.6 4.8 0.00 0.00 0.00 60 1023.1
20260506144328 6 187 0.0 12.9 0.00 0.00 0.00 58 1023.2
20260506143827 6 29 1.6 3.2 0.00 0.00 0.00 62 1023.4
20260506143323 6 77 1.6 4.8 0.00 0.00 0.00 62 1023.2
20260506142822 5 153 0.0 1.6 0.00 0.00 0.00 64 1023.2
20260506142319 5 108 4.8 4.8 0.00 0.00 0.00 63 1023.2
20260506141818 5 159 0.0 1.6 0.00 0.00 0.00 67 1023.0
20260506141315 4 222 0.0 3.2 0.00 0.00 0.00 67 1023.2
20260506140813 3 261 0.0 1.6 0.00 0.00 0.00 71 1023.1
20260506140309 2 271 0.0 1.6 0.00 0.00 0.00 75 1023.1
20260506135807 2 241 0.0 8.0 0.00 0.00 0.00 77 1023.1
20260506135305 1 187 0.0 1.6 0.00 0.00 0.00 80 1023.0
20260506134800 1 123 0.0 0.0 0.00 0.00 0.00 81 1023.1
20260506134256 1 123 0.0 0.0 0.00 0.00 0.00 83 1022.9
20260506133753 0 123 0.0 0.0 0.00 0.00 0.00 83 1022.8
20260506133250 0 117 1.6 4.8 0.00 0.00 0.00 83 1023.0
20260506132747 0 128 1.6 1.6 0.00 0.00 0.00 86 1022.9
20260506132244 0 124 1.6 1.6 0.00 0.00 0.00 89 1023.0
20260506131742 0 131 0.0 0.0 0.00 0.00 0.00 91 1022.8
20260506131238 -1 132 0.0 0.0 0.00 0.00 0.00 93 1023.0
20260506130735 -1 132 0.0 0.0 0.00 0.00 0.00 93 1022.9
20260506130232 -1 132 0.0 0.0 0.00 0.00 0.00 93 1022.8
20260506125730 -1 132 0.0 0.0 0.00 0.00 0.00 93 1022.9
20260506125227 -1 132 0.0 0.0 0.00 0.00 0.00 91 1022.6
20260506124725 -1 132 0.0 0.0 0.00 0.00 0.00 90 1022.6
20260506124223 -1 132 0.0 0.0 0.00 0.00 0.00 89 1022.5
20260506123720 -1 132 0.0 0.0 0.00 0.00 0.00 89 1022.6
20260506123219 -1 132 0.0 0.0 0.00 0.00 0.00 89 1022.4
20260506122715 -1 132 0.0 0.0 0.00 0.00 0.00 90 1022.4
20260506122213 -1 132 0.0 0.0 0.00 0.00 0.00 90 1022.4
20260506121710 -1 133 0.0 0.0 0.00 0.00 0.00 91 1022.5
20260506121207 -1 133 0.0 0.0 0.00 0.00 0.00 90 1022.1
20260506120705 -1 133 0.0 0.0 0.00 0.00 0.00 91 1022.3
20260506120202 -1 132 0.0 0.0 0.00 0.00 0.00 92 1022.1
20260506115700 -1 132 0.0 0.0 0.00 0.00 0.00 93 1022.1
20260506115158 -1 132 0.0 0.0 0.00 0.00 0.00 94 1022.0
20260506114655 -1 132 0.0 0.0 0.00 0.00 0.00 95 1022.1
20260506114152 -1 132 0.0 0.0 0.00 0.00 0.00 95 1022.1
20260506113651 -1 133 0.0 0.0 0.00 0.00 0.00 96 1022.1
20260506113148 -1 143 0.0 0.0 0.00 0.00 0.00 96 1022.0
20260506112644 -1 144 0.0 0.0 0.00 0.00 0.00 96 1022.0
20260506112142 -1 147 0.0 0.0 0.00 0.00 0.00 96 1022.1
20260506111639 -2 147 0.0 0.0 0.00 0.00 0.00 96 1021.9
20260506111137 -1 147 0.0 0.0 0.00 0.00 0.00 96 1022.0
20260506110634 -1 114 0.0 0.0 0.00 0.00 0.00 96 1021.9
20260506110131 -2 41 0.0 0.0 0.00 0.00 0.00 96 1021.8
20260506105628 -1 41 0.0 0.0 0.00 0.00 0.00 96 1021.9
20260506105125 -1 41 0.0 0.0 0.00 0.00 0.00 95 1021.9
20260506104623 -1 41 0.0 0.0 0.00 0.00 0.00 95 1021.6
20260506104120 -1 40 0.0 0.0 0.00 0.00 0.00 95 1021.4
20260506103617 -1 40 0.0 0.0 0.00 0.00 0.00 95 1021.5
20260506103114 -1 40 0.0 0.0 0.00 0.00 0.00 95 1021.8
20260506102612 -1 40 0.0 0.0 0.00 0.00 0.00 95 1021.4
20260506102109 -1 40 0.0 0.0 0.00 0.00 0.00 94 1021.6
20260506101606 -1 40 0.0 0.0 0.00 0.00 0.00 94 1021.5
20260506101103 -1 40 1.6 1.6 0.00 0.00 0.00 95 1021.4
20260506100601 -1 55 1.6 3.2 0.00 0.00 0.00 96 1021.4
20260506100059 -1 117 0.0 0.0 0.00 0.00 0.00 97 1021.3
20260506095557 -1 114 0.0 1.6 0.00 0.00 0.00 97 1021.5
20260506095054 -1 116 0.0 0.0 0.00 0.00 0.00 96 1021.4
20260506094551 -1 116 0.0 0.0 0.00 0.00 0.00 96 1021.4
20260506094049 -1 116 0.0 0.0 0.00 0.00 0.00 96 1021.3
20260506093547 -1 116 0.0 0.0 0.00 0.00 0.00 96 1021.3
20260506093044 -1 116 0.0 0.0 0.00 0.00 0.00 96 1021.3
20260506092542 -1 116 0.0 0.0 0.00 0.00 0.00 96 1021.1
20260506092039 -1 116 0.0 0.0 0.00 0.00 0.00 96 1021.1
20260506091537 -1 116 0.0 0.0 0.00 0.00 0.00 96 1021.4
20260506091034 -1 116 0.0 0.0 0.00 0.00 0.00 96 1021.3
20260506090532 -1 116 0.0 0.0 0.00 0.00 0.00 95 1021.3
20260506090028 -1 116 0.0 0.0 0.00 0.00 0.00 95 1021.5
20260506085525 -1 115 0.0 0.0 0.00 0.00 0.00 95 1021.1
20260506085021 -1 115 0.0 0.0 0.00 0.00 0.00 94 1021.3
20260506084518 -1 114 0.0 0.0 0.00 0.00 0.00 94 1021.1
20260506084014 -1 114 0.0 0.0 0.00 0.00 0.00 93 1021.3
20260506083512 0 114 0.0 0.0 0.00 0.00 0.00 93 1021.1
20260506083009 0 114 0.0 0.0 0.00 0.00 0.00 92 1021.4
20260506082506 0 114 0.0 0.0 0.00 0.00 0.00 92 1021.6
20260506082001 0 114 0.0 0.0 0.00 0.00 0.00 91 1021.5
20260506081500 0 114 0.0 0.0 0.00 0.00 0.00 91 1021.4
20260506080957 0 114 0.0 0.0 0.00 0.00 0.00 90 1021.4
20260506080454 0 114 0.0 1.6 0.00 0.00 0.00 90 1021.3
20260506073438 0 73 3.2 3.2 0.00 0.00 0.00 91 1021.9
20260506072935 0 102 1.6 1.6 0.00 0.00 0.00 92 1021.5
20260506072432 0 109 0.0 1.6 0.00 0.00 0.00 91 1021.8
20260506071930 0 97 1.6 3.2 0.00 0.00 0.00 92 1021.5
20260506071428 0 112 0.0 1.6 0.00 0.00 0.00 92 1021.6
20260506070924 0 116 0.0 1.6 0.00 0.00 0.00 91 1021.5
20260506070421 0 108 0.0 3.2 0.00 0.00 0.00 91 1021.5
20260506062359 1 104 1.6 1.6 0.00 0.28 0.28 92 1021.0
20260506061854 1 112 0.0 1.6 0.00 0.28 0.28 92 1021.1
20260506061351 1 112 1.6 1.6 0.00 0.28 0.28 92 1021.3
20260506060849 1 111 0.0 0.0 0.00 0.28 0.28 91 1021.1
20260506060347 1 109 0.0 0.0 0.00 0.28 0.28 91 1021.0